COSMOS 1850

导读

COSMOS 1850(宇宙1850)是苏联(现归属于独立国家联合体CIS)在1987年6月9日09:00发射的人造卫星,隶属于苏联/俄罗斯"宇宙"(COSMOS)系列卫星。 作为世界上规模最大的卫星家族,"宇宙"系列涵盖多种任务类型,多数为军用卫星,推测COSMOS 1850大概率承担冷战后期军事侦察或空间技术试验任务,是苏联航天活动的重要组成,延续了"宇宙"系列多用途、批量发射的布局,在当时战略空间探索中发挥作用。

Basic Information
目录编号:
18095
目录名称:
COSMOS 1850
国际标识:
1987-049A
轨道中心:
EARTH
卫星名称:
COSMOS 1850
卫星全名:
--
卫星状态:
在轨 (已飞行14339 天)
发射日期:
1987-06-09 UTC
国别 :
俄罗斯(独联体) (CIS)
星等 :
--
This satellite is enrolled in the Space Conjunction Data Service (SCDS) and the current flight risk assessment level is: No High Risk
Orbit Information
数据来源 国际轨道数据 AOE轨道数据
星历时间 2026-09-10T22:43:14+0800
17小时前
查看轨道信息
2026-09-10T23:00:00+0800
17小时前
查看轨道信息
半长轴 7156.034km 7156.034km
偏心率 0.0015968 0.0015989
轨道倾角 74.036° 74.036°
近地点辐角 256.089° 255.342°
升交点赤经 260.508° 260.483°
平近点角 103.849° 164.676°
近地点 766.47km 766.455km
远地点 789.324km 789.339km
周期 100.408分钟 100.408分钟
每日圈数 14.341487 14.341488
Detailed Information
使用方式:
暂无
2D Orbit Map
3D Orbit Map
Orbit Altitude Analysis Chart
Orbit Inclination Analysis Chart
Orbit Comprehensive Analysis Chart
View Comprehensive Chart
Conjunction Data List
Event ID Objects TCA Miss Dist (km) Collision Risk Probability Collision Risk Index (CRI) Action
CDM_260912-112701-809501-858625
SL-8 R/B (18586)
2026-09-12T
11:27:41+0000
1.396 km
极远距离
5.21332E-6 低风险 0.49
CDM_260912-061901-242701-809527
2026-09-12T
06:19:55+0000
1.905 km
极远距离
3.254807E-6 低风险 0.45
CDM_260912-233301-809503-908925
NEOSSAT (39089)
2026-09-12T
23:33:54+0000
2.230 km
极远距离
2.213736E-6 低风险 0.42
Miss Distance Evolution Trend with All Objects
Collision Probability Evolution Trend with All Objects